Regional Weather Roundup
Issued by NWS Goodland, KS

Home | Current Version | Previous Version | Text Only | Print | Product List | Glossary On
Versions: 1 2 3 4 5 6 7 8 9 10 11 12 13 14 15 16 17 18 19 20 21 22 23 24 25 26 27 28 29 30 31 32 33 34 35 36 37 38 39 40 41 42 43 44 45 46 47 48 49 50
000
ASUS43 KGLD 312208
RWRGLD

GOODLAND FORECAST AREA HOURLY WEATHER ROUNDUP
NATIONAL WEATHER SERVICE GOODLAND KS
400 PM MDT WED AUG 31 2016

...OFFICIAL OBSERVATIONS...

CITY           SKY/WX    TMP DP  RH WIND       PRES   REMARKS
GOODLAND KS    CLOUDY    69  64  84 E10       30.21S
HILL CITY KS   CLOUDY    78  67  68 E10       30.16F
IMPERIAL NEB   CLOUDY    73  64  73 E7        30.21F
MCCOOK NEB     CLOUDY    76  64  66 E10       30.18F
AKRON CO       PTSUNNY   76  58  53 E14       30.21F
BURLINGTON CO  CLOUDY    63  59  87 E6        30.23F
LIMON CO       HVY RAIN  60  58  92 E20G25    30.24R FOG
$$

...UNOFFICIAL OBSERVATIONS...

CITY           SKY/WX    TMP DP  RH WIND       PRES   REMARKS
COLBY KS       SUNNY     73  66  78 E9        30.21R
LENORA KS        N/A     72  32  23 MISG        N/A
NORTON KS      MOSUNNY   73  61  64 E9        30.17
SHARON SPRINGS   N/A     67  62  83 N5G12       N/A
TRIBUNE KS     PTSUNNY   79  63  57 SE8       30.19S
TRENTON NEB      N/A     75  32  20 MISG        N/A
KIT CARSON CO    N/A     73  56  56 MISG        N/A
$$




USA.gov is the U.S. government's official web portal to all federal, state and local government web resources and services.